Location: Monrovia
(34.7865°N, 86.7139°W)
Time: 00:53:44
(UTC+00:00)

Cosmos 1607 - Pass Details

Date: 14 July 2020
Orbit: 912 x 990 km, 65.0° (Epoch: 12 August)

Event Time Altitude Azimuth Distance (km) Brightness Sun altitude
Exits shadow 05:32:17 55° 321° (NW) 1,120 4.4 -33.4°
Drops below altitude 10° 05:37:58 10° 21° (NNE) 2,687 7.0 -33.5°
Sets 05:40:37 0° 25° (NNE) 3,648 7.8 -33.5°
